OK1VCF-8 Weather Reports


Display with metric or nautical units.
time (UTC)temp
F
wind
direction
speed
MPH
gust
MPH
rain 1hr
in
rain 24hr
in
rain mn
in
humidity
%
barometer
mb
20260902023921 54 0 0.0 0.0 0.00 0.00 0.00 86 1022.5
20260902023203 54 0 0.0 0.0 0.00 0.00 0.00 84 1022.4
20260902022446 56 0 0.0 0.0 0.00 0.00 0.00 84 1022.4
20260902021446 55 0 0.0 0.0 0.00 0.00 0.00 84 1022.6
20260902020727 56 0 0.0 0.0 0.00 0.00 0.00 84 1022.5
20260902020010 56 0 0.0 0.0 0.00 0.00 0.00 82 1022.4
20260902015251 56 0 0.0 0.0 0.00 0.00 0.00 84 1022.4
20260902013110 56 0 0.0 0.0 0.00 0.00 0.00 84 1022.4
20260902012351 55 0 0.0 0.0 0.00 0.00 0.00 85 1022.2
20260902011633 55 0 0.0 0.0 0.00 0.00 0.00 85 1022.2
20260902010914 55 0 0.0 0.0 0.00 0.00 0.00 84 1022.0
20260902010150 55 0 0.0 0.0 0.00 0.00 0.00 84 1022.0
20260902005422 55 0 0.0 0.0 0.00 0.00 0.00 84 1022.2
20260902004653 56 0 0.0 0.0 0.00 0.00 0.00 82 1022.2
20260902003928 57 0 0.0 0.0 0.00 0.00 0.00 81 1022.2
20260902003204 57 0 0.0 0.0 0.00 0.00 0.00 80 1022.2
20260902002149 57 0 0.0 0.0 0.00 0.00 0.00 80 1022.2
20260902001420 57 0 0.0 0.0 0.00 0.00 0.00 80 1022.1
20260902000651 58 0 0.0 0.0 0.00 0.00 0.00 80 1022.3
20260901235921 57 0 0.0 0.0 0.00 0.00 0.00 80 1022.2
20260901235139 57 0 0.0 0.0 0.00 0.00 0.00 80 1022.4
20260901234402 57 0 0.0 0.0 0.00 0.00 0.00 80 1022.2
20260901233626 57 0 0.0 0.0 0.00 0.00 0.00 80 1022.3
20260901232855 58 0 0.0 0.0 0.00 0.00 0.00 79 1022.2
20260901232134 58 0 0.0 0.0 0.00 0.00 0.00 78 1022.2
20260901231417 58 0 0.0 0.0 0.00 0.00 0.00 78 1022.2
20260901230702 58 0 0.0 0.0 0.00 0.00 0.00 78 1022.2
20260901225945 58 0 0.0 0.0 0.00 0.00 0.00 77 1022.2
20260901225229 59 0 0.0 0.0 0.00 0.00 0.00 76 1022.3
20260901224511 59 0 0.0 0.0 0.00 0.00 0.00 76 1022.2
20260901223754 59 0 0.0 0.0 0.00 0.00 0.00 76 1022.2
20260901222754 60 0 0.0 0.0 0.00 0.00 0.00 76 1022.4
20260901222035 60 0 0.0 0.0 0.00 0.00 0.00 74 1022.2
20260901221318 60 0 0.0 0.0 0.00 0.00 0.00 75 1022.4
20260901220601 60 0 0.0 0.0 0.00 0.00 0.00 76 1022.4
20260901215843 60 0 0.0 0.0 0.00 0.00 0.00 75 1022.3
20260901215126 60 0 0.0 0.0 0.00 0.00 0.00 74 1022.3
20260901214409 60 0 0.0 0.0 0.00 0.00 0.00 74 1022.3
20260901213653 60 0 0.0 0.0 0.00 0.00 0.00 74 1022.2
20260901212935 60 0 0.0 0.0 0.00 0.00 0.00 74 1022.2
20260901212218 60 0 0.0 0.0 0.00 0.00 0.00 74 1022.1
20260901211500 60 0 0.0 0.0 0.00 0.00 0.00 74 1022.0
20260901210745 60 0 0.0 0.0 0.00 0.00 0.00 74 1022.0
20260901210027 60 0 0.0 0.0 0.00 0.00 0.00 74 1022.0
20260901205310 60 0 0.0 0.0 0.00 0.00 0.00 74 1022.0
20260901204553 60 0 0.0 0.0 0.00 0.00 0.00 73 1022.0
20260901203553 62 0 0.0 0.0 0.00 0.00 0.00 72 1022.0
20260901202836 62 0 0.0 0.0 0.00 0.00 0.00 72 1022.0
20260901202118 62 0 0.0 0.0 0.00 0.00 0.00 72 1022.1
20260901201401 62 0 0.0 0.0 0.00 0.00 0.00 71 1022.0
20260901200645 62 0 0.0 0.0 0.00 0.00 0.00 70 1022.0
20260901195927 62 0 0.0 0.0 0.00 0.00 0.00 70 1022.0
20260901193747 64 0 0.0 0.0 0.00 0.00 0.00 65 1022.0
20260901193028 64 0 0.0 0.0 0.00 0.00 0.00 66 1021.8
20260901192311 64 0 0.0 0.0 0.00 0.00 0.00 65 1021.8
20260901191554 64 0 0.0 0.0 0.00 0.00 0.00 64 1021.8
20260901190838 64 0 0.0 0.0 0.00 0.00 0.00 64 1021.6
20260901190120 64 0 0.0 0.0 0.00 0.00 0.00 62 1021.6
20260901185402 64 0 0.0 0.0 0.00 0.00 0.00 63 1021.6
20260901184400 65 0 0.0 0.0 0.00 0.00 0.00 62 1021.5
20260901183642 65 0 0.0 0.0 0.00 0.00 0.00 62 1021.4
20260901182924 66 0 0.0 0.0 0.00 0.00 0.00 62 1021.4
20260901182206 66 0 0.0 0.0 0.00 0.00 0.00 60 1021.2
20260901181447 68 0 0.0 0.0 0.00 0.00 0.00 58 1021.2
20260901180730 68 0 0.0 0.0 0.00 0.00 0.00 56 1021.2
20260901180010 68 0 0.0 0.0 0.00 0.00 0.00 56 1021.0
20260901175252 68 0 0.0 0.0 0.00 0.00 0.00 56 1020.9
20260901174535 68 0 0.0 0.0 0.00 0.00 0.00 56 1021.0
20260901173818 68 0 0.0 0.0 0.00 0.00 0.00 56 1020.9
20260901173058 68 0 0.0 0.0 0.00 0.00 0.00 55 1020.9
20260901172340 69 0 0.0 0.0 0.00 0.00 0.00 54 1020.8
20260901171621 70 0 0.0 0.0 0.00 0.00 0.00 52 1021.0
20260901170904 71 0 0.0 0.0 0.00 0.00 0.00 50 1020.9
20260901170147 72 0 0.0 0.0 0.00 0.00 0.00 50 1020.9
20260901165144 73 0 0.0 0.0 0.00 0.00 0.00 48 1021.0
20260901164428 75 0 0.0 0.0 0.00 0.00 0.00 44 1021.0
20260901163710 82 0 0.0 0.0 0.00 0.00 0.00 36 1021.0
20260901162952 83 0 0.0 0.0 0.00 0.00 0.00 36 1020.9
20260901162235 86 0 0.0 0.0 0.00 0.00 0.00 33 1020.8
20260901161516 86 0 0.0 0.0 0.00 0.00 0.00 34 1020.8
20260901160758 86 0 0.0 0.0 0.00 0.00 0.00 34 1020.8
20260901160040 86 0 0.0 0.0 0.00 0.00 0.00 33 1020.8
20260901155320 86 0 0.0 0.0 0.00 0.00 0.00 33 1020.8
20260901154605 84 0 0.0 0.0 0.00 0.00 0.00 34 1021.0
20260901153849 86 0 0.0 0.0 0.00 0.00 0.00 32 1020.9
20260901153130 86 0 0.0 0.0 0.00 0.00 0.00 33 1021.0
20260901152409 84 0 0.0 0.0 0.00 0.00 0.00 34 1021.0
20260901151651 83 0 0.0 0.0 0.00 0.00 0.00 35 1021.0
20260901150932 77 0 0.0 0.0 0.00 0.00 0.00 43 1021.1
20260901145929 76 0 0.0 0.0 0.00 0.00 0.00 43 1021.2
20260901145213 75 0 0.0 0.0 0.00 0.00 0.00 44 1021.2
20260901144455 76 0 0.0 0.0 0.00 0.00 0.00 42 1021.3
20260901143735 77 0 0.0 0.0 0.00 0.00 0.00 42 1021.4
20260901143017 76 0 0.0 0.0 0.00 0.00 0.00 42 1021.2
20260901142258 77 0 0.0 0.0 0.00 0.00 0.00 42 1021.4
20260901141539 76 0 0.0 0.0 0.00 0.00 0.00 44 1021.4
20260901140821 76 0 0.0 0.0 0.00 0.00 0.00 44 1021.3
20260901140104 76 0 0.0 0.0 0.00 0.00 0.00 46 1021.4
20260901135344 76 0 0.0 0.0 0.00 0.00 0.00 46 1021.6
20260901134626 74 0 0.0 0.0 0.00 0.00 0.00 48 1021.6
20260901133909 74 0 0.0 0.0 0.00 0.00 0.00 47 1021.6
20260901133150 72 0 0.0 0.0 0.00 0.00 0.00 48 1021.7
20260901132432 74 0 0.0 0.0 0.00 0.00 0.00 48 1021.7
20260901131714 74 0 0.0 0.0 0.00 0.00 0.00 48 1021.8
20260901130707 74 0 0.0 0.0 0.00 0.00 0.00 48 1021.9
20260901125938 72 0 0.0 0.0 0.00 0.00 0.00 49 1021.8
20260901125208 72 0 0.0 0.0 0.00 0.00 0.00 48 1021.8
20260901124439 74 0 0.0 0.0 0.00 0.00 0.00 46 1021.9
20260901123712 76 0 0.0 0.0 0.00 0.00 0.00 44 1021.8
20260901122941 76 0 0.0 0.0 0.00 0.00 0.00 44 1022.0
20260901122212 75 0 0.0 0.0 0.00 0.00 0.00 44 1022.0
20260901121434 76 0 0.0 0.0 0.00 0.00 0.00 46 1022.0
20260901120706 76 0 0.0 0.0 0.00 0.00 0.00 45 1022.0
20260901115931 76 0 0.0 0.0 0.00 0.00 0.00 46 1022.1
20260901115155 77 0 0.0 0.0 0.00 0.00 0.00 44 1022.1
20260901114417 78 0 0.0 0.0 0.00 0.00 0.00 44 1022.0
20260901113642 76 0 0.0 0.0 0.00 0.00 0.00 46 1022.2
20260901112913 75 0 0.0 0.0 0.00 0.00 0.00 46 1022.0
20260901112146 76 0 0.0 0.0 0.00 0.00 0.00 48 1022.2
20260901111143 75 0 0.0 0.0 0.00 0.00 0.00 47 1022.2
20260901110426 74 0 0.0 0.0 0.00 0.00 0.00 50 1022.2
20260901105707 74 0 0.0 0.0 0.00 0.00 0.00 50 1022.1
20260901104950 74 0 0.0 0.0 0.00 0.00 0.00 49 1022.0
20260901104232 74 0 0.0 0.0 0.00 0.00 0.00 50 1022.2
20260901103514 73 0 0.0 0.0 0.00 0.00 0.00 51 1022.2
20260901102756 75 0 0.0 0.0 0.00 0.00 0.00 50 1022.2
20260901102037 73 0 0.0 0.0 0.00 0.00 0.00 52 1022.1
20260901101318 73 0 0.0 0.0 0.00 0.00 0.00 50 1022.2
20260901100600 72 0 0.0 0.0 0.00 0.00 0.00 53 1022.1
20260901095840 73 0 0.0 0.0 0.00 0.00 0.00 50 1022.0
20260901095123 74 0 0.0 0.0 0.00 0.00 0.00 52 1022.1
20260901094406 74 0 0.0 0.0 0.00 0.00 0.00 51 1022.0
20260901093649 73 0 0.0 0.0 0.00 0.00 0.00 55 1021.8
20260901092931 72 0 0.0 0.0 0.00 0.00 0.00 55 1022.0
20260901091929 73 0 0.0 0.0 0.00 0.00 0.00 54 1022.0
20260901091212 72 0 0.0 0.0 0.00 0.00 0.00 56 1022.2
20260901090453 72 0 0.0 0.0 0.00 0.00 0.00 56 1022.0
20260901085734 70 0 0.0 0.0 0.00 0.00 0.00 56 1022.0
20260901085017 70 0 0.0 0.0 0.00 0.00 0.00 58 1022.0
20260901084259 70 0 0.0 0.0 0.00 0.00 0.00 59 1021.8
20260901083540 70 0 0.0 0.0 0.00 0.00 0.00 56 1021.7
20260901082822 70 0 0.0 0.0 0.00 0.00 0.00 58 1021.8
20260901082104 70 0 0.0 0.0 0.00 0.00 0.00 60 1021.8
20260901081344 69 0 0.0 0.0 0.00 0.00 0.00 59 1021.6
20260901080627 69 0 0.0 0.0 0.00 0.00 0.00 58 1021.6
20260901075908 68 0 0.0 0.0 0.00 0.00 0.00 59 1021.4
20260901075148 68 0 0.0 0.0 0.00 0.00 0.00 62 1021.4
20260901074431 68 0 0.0 0.0 0.00 0.00 0.00 62 1021.4
20260901073714 67 0 0.0 0.0 0.00 0.00 0.00 62 1021.4
20260901072712 66 0 0.0 0.0 0.00 0.00 0.00 65 1021.2
20260901071954 66 0 0.0 0.0 0.00 0.00 0.00 67 1021.2
20260901071236 66 0 0.0 0.0 0.00 0.00 0.00 70 1021.4
20260901070513 65 0 0.0 0.0 0.00 0.00 0.00 71 1021.3
20260901065748 64 0 0.0 0.0 0.00 0.00 0.00 72 1021.4
20260901065027 64 0 0.0 0.0 0.00 0.00 0.00 74 1021.2
20260901064305 64 0 0.0 0.0 0.00 0.00 0.00 75 1021.3
20260901063542 64 0 0.0 0.0 0.00 0.00 0.00 76 1021.2
20260901062816 63 0 0.0 0.0 0.00 0.00 0.00 76 1021.4
20260901062049 62 0 0.0 0.0 0.00 0.00 0.00 78 1021.3
20260901061324 62 0 0.0 0.0 0.00 0.00 0.00 78 1021.2
20260901060602 62 0 0.0 0.0 0.00 0.00 0.00 80 1021.2
20260901055840 62 0 0.0 0.0 0.00 0.00 0.00 80 1021.0
20260901055117 60 0 0.0 0.0 0.00 0.00 0.00 81 1021.2
20260901054358 60 0 0.0 0.0 0.00 0.00 0.00 82 1021.0
20260901053355 60 0 0.0 0.0 0.00 0.00 0.00 82 1020.8
20260901052635 60 0 0.0 0.0 0.00 0.00 0.00 84 1021.0
20260901051916 59 0 0.0 0.0 0.00 0.00 0.00 84 1020.8
20260901051159 59 0 0.0 0.0 0.00 0.00 0.00 84 1020.8
20260901050440 58 0 0.0 0.0 0.00 0.00 0.00 84 1021.0
20260901045720 58 0 0.0 0.0 0.00 0.00 0.00 85 1020.8
20260901045001 58 0 0.0 0.0 0.00 0.00 0.00 84 1020.6
20260901044244 58 0 0.0 0.0 0.00 0.00 0.00 84 1020.6
20260901043527 58 0 0.0 0.0 0.00 0.00 0.00 84 1020.4
20260901042809 58 0 0.0 0.0 0.00 0.00 0.00 85 1020.4
20260901042050 57 0 0.0 0.0 0.00 0.00 0.00 86 1020.4
20260901041331 58 0 0.0 0.0 0.00 0.00 0.00 84 1020.2
20260901040615 58 0 0.0 0.0 0.00 0.00 0.00 83 1020.3
20260901035855 59 0 0.0 0.0 0.00 0.00 0.00 82 1020.2
20260901035136 59 0 0.0 0.0 0.00 0.00 0.00 82 1020.3
20260901034134 59 0 0.0 0.0 0.00 0.00 0.00 82 1020.1
20260901033417 60 0 0.0 0.0 0.00 0.00 0.00 81 1020.2
20260901032659 60 0 0.0 0.0 0.00 0.00 0.00 80 1020.2
20260901031942 60 0 0.0 0.0 0.00 0.00 0.00 81 1020.0
20260901031225 60 0 0.0 0.0 0.00 0.00 0.00 80 1020.1
20260901030508 60 0 0.0 0.0 0.00 0.00 0.00 80 1020.0
20260901025750 60 0 0.0 0.0 0.00 0.00 0.00 80 1020.1
20260901025033 60 0 0.0 0.0 0.00 0.00 0.00 80 1020.1
20260901024315 60 0 0.0 0.0 0.00 0.00 0.00 80 1020.1